Weather past 2 weeks in Philipsburg, Sint Maarten

Now
82 °F

Passing clouds.


Feels Like: 89 °F
Forecast: 82 / 88 °F
Wind: 10 mph from East

Location: Juliana Airport - Saint Maarten

Current Time: Sep 19, 2014 at 6:29:20 AM

Latest Report: Sep 19, 2014 at 6:00 AM


Visibility: N/A

Pressure: 29.95 "Hg

Humidity: 79%

Dew point: 75 °F

Location of PhilipsburgLocation

Historic Weather in Philipsburg — Graph

°F

Philipsburg temperature yesterday

Maximum temperature yesterday: 88 °F (at 1:00 PM)
Minimum temperature yesterday: 82 °F (at 1:00 AM)
Average temperature yesterday: 84 °F

Past Weeks' High & Low Weather Summary

 TemperatureHumidityPressure
High90 °F (Sep 12, 3:00 PM)94% (Sep 4, 6:00 AM)30.07 "Hg (Sep 4, 6:00 AM)
Low77 °F (Sep 4, 6:00 AM)52% (Sep 17, 1:00 PM)29.89 "Hg (Sep 17, 4:00 PM)
Average84 °F73%29.99 "Hg
* Reported Sep 4 5:00 AM — Sep 19 5:00 AM, Philipsburg, Weather by CustomWeather, © 2014

Note: Actual official high and low records may vary slightly from our data, if they occured in-between our weather recording intervals... More about our weather records

Advertising

Philipsburg weather history for previous 24 hours

 ConditionsComfort  
Time TempWeatherWind HumidityBarometerVisibility
5:00 AM
Sep 19
82 °FSprinkles. Passing clouds.9 mph79%29.95 "HgN/A
4:00 AM82 °FPassing clouds.9 mph79%29.92 "HgN/A
3:00 AM82 °FPassing clouds.9 mph79%29.92 "HgN/A
2:00 AM82 °FThundershowers. Passing clouds.9 mph74%29.95 "HgN/A
1:00 AM84 °FThundershowers. Passing clouds.9 mph74%29.95 "HgN/A
12:00 AM84 °FPassing clouds.6 mph74%29.98 "HgN/A
11:00 PM
Sep 18
84 °FPassing clouds.9 mph79%29.98 "HgN/A
10:00 PM82 °FPassing clouds.9 mph84%29.98 "HgN/A
9:00 PM84 °FPassing clouds.10 mph74%29.98 "HgN/A
8:00 PM84 °FPassing clouds.9 mph74%29.98 "HgN/A
7:00 PM82 °FPassing clouds.9 mph79%29.95 "HgN/A
6:00 PM84 °FPassing clouds.8 mph79%29.92 "HgN/A
5:00 PM84 °FPassing clouds.8 mph79%29.92 "HgN/A
4:00 PM82 °FSprinkles. Partly sunny.9 mph84%29.92 "Hg6 mi
3:00 PM88 °FScattered clouds.10 mph70%29.92 "HgN/A
2:00 PM86 °FPassing clouds.7 mph75%29.92 "HgN/A
1:00 PM88 °FScattered clouds.13 mph70%29.92 "HgN/A
12:00 PM86 °FPartly sunny.12 mph75%29.98 "HgN/A
11:00 AM86 °FSprinkles. Partly sunny.12 mph75%29.98 "HgN/A
10:00 AM86 °FScattered clouds.10 mph79%29.98 "HgN/A
9:00 AM82 °FPassing clouds.10 mph79%29.98 "HgN/A
8:00 AM84 °FPartly sunny.8 mph79%29.95 "HgN/A
7:00 AM82 °FScattered showers. Scattered clouds.9 mph84%29.95 "Hg2 mi
6:00 AM82 °FSprinkles. Scattered clouds.6 mph84%29.92 "HgN/A
Weather by CustomWeather, © 2014

See weather overviewHow to use our weather pages